TOW745C EGVN-EDDM

Flight info

Callsign TOW745C
Flight time N/A
Altitude 23000
Route CONKO CONKO L18 UNZIB L607 NUCHU/N0474F390 L607 ALHAD P72 IPRIL M197 REDFA DCT TACHA DCT DODEN/N0474F330 DCT TABUM DCT BOMBI T104 HAREM/N0452F270 T104 ROKIL ROKIL1B
Aircraft A333/H-SDE3GHIJ2J3J5M1RVWXY/LB2D1

Departure

Time 2026-05-04 18:39
Airport RAF Brize Norton (EGVN)

Arrival

Time N/A
Airport Munich Airport (EDDM)
Time Latitude Longitude Altitude Speed Heading
2026-05-04 18:18 51.75606 -1.57328 274 ft 0 kts 288°
2026-05-04 18:30 51.75642 -1.57403 275 ft 2 kts
2026-05-04 18:30 51.75660 -1.57396 275 ft 4 kts 11°
2026-05-04 18:30 51.75727 -1.57370 276 ft 16 kts 17°
2026-05-04 18:31 51.75841 -1.57308 273 ft 18 kts 22°
2026-05-04 18:31 51.75904 -1.57197 272 ft 12 kts 105°
2026-05-04 18:31 51.75864 -1.57063 271 ft 14 kts 126°
2026-05-04 18:31 51.75790 -1.56938 271 ft 16 kts 148°
2026-05-04 18:32 51.75682 -1.56865 271 ft 18 kts 164°
2026-05-04 18:32 51.75612 -1.56833 271 ft 0 kts 163°
2026-05-04 18:32 51.75603 -1.56829 271 ft 3 kts 163°
2026-05-04 18:32 51.75561 -1.56808 271 ft 12 kts 162°
2026-05-04 18:33 51.75471 -1.56762 270 ft 15 kts 162°
2026-05-04 18:33 51.75366 -1.56709 269 ft 17 kts 162°
2026-05-04 18:33 51.75245 -1.56650 270 ft 18 kts 163°
2026-05-04 18:33 51.75116 -1.56639 271 ft 20 kts 200°
2026-05-04 18:34 51.75016 -1.56777 272 ft 20 kts 237°
2026-05-04 18:34 51.74942 -1.56972 274 ft 21 kts 240°
2026-05-04 18:34 51.74865 -1.57175 276 ft 21 kts 230°
2026-05-04 18:34 51.74781 -1.57376 278 ft 22 kts 237°
2026-05-04 18:35 51.74699 -1.57590 280 ft 23 kts 236°
2026-05-04 18:35 51.74613 -1.57812 282 ft 23 kts 238°
2026-05-04 18:35 51.74542 -1.58046 284 ft 24 kts 263°
2026-05-04 18:35 51.74596 -1.58292 285 ft 24 kts 301°
2026-05-04 18:36 51.74643 -1.58539 287 ft 23 kts 261°
2026-05-04 18:36 51.74597 -1.58795 291 ft 24 kts 253°
2026-05-04 18:36 51.74540 -1.59047 295 ft 24 kts 239°
2026-05-04 18:36 51.74502 -1.59281 297 ft 20 kts 257°
2026-05-04 18:37 51.74468 -1.59502 297 ft 20 kts 252°
2026-05-04 18:37 51.74429 -1.59728 300 ft 21 kts 265°
2026-05-04 18:37 51.74468 -1.59955 303 ft 22 kts 297°
2026-05-04 18:37 51.74488 -1.60187 303 ft 21 kts 280°
2026-05-04 18:38 51.74559 -1.60349 306 ft 13 kts 329°
2026-05-04 18:38 51.74620 -1.60305 302 ft 11 kts 60°
2026-05-04 18:38 51.74657 -1.60150 302 ft 29 kts 71°
2026-05-04 18:38 51.74736 -1.59741 298 ft 88 kts 73°
2026-05-04 18:39 51.74996 -1.58331 321 ft 170 kts 75°
2026-05-04 18:39 51.75344 -1.56188 822 ft 219 kts 75°
2026-05-04 18:39 51.75781 -1.53758 1476 ft 236 kts 58°
2026-05-04 18:39 51.77585 -1.51889 2692 ft 246 kts
2026-05-04 18:40 51.78743 -1.52047 3277 ft 253 kts 343°
2026-05-04 18:40 51.80173 -1.53699 4241 ft 258 kts 305°
2026-05-04 18:40 51.80725 -1.56393 5368 ft 255 kts 270°
2026-05-04 18:40 51.80236 -1.59109 6299 ft 264 kts 237°
2026-05-04 18:41 51.78845 -1.61226 6828 ft 288 kts 215°
2026-05-04 18:41 51.77167 -1.63319 7011 ft 321 kts 222°
2026-05-04 18:41 51.75456 -1.65896 7016 ft 356 kts 225°
2026-05-04 18:41 51.73950 -1.69252 7000 ft 386 kts 245°
2026-05-04 18:42 51.73172 -1.73155 9142 ft 335 kts 253°
2026-05-04 18:42 51.72552 -1.76795 10624 ft 333 kts 253°
2026-05-04 18:42 51.71946 -1.80269 12075 ft 318 kts 252°
2026-05-04 18:42 51.71341 -1.83624 13495 ft 305 kts 252°
2026-05-04 18:43 51.70742 -1.86849 14745 ft 293 kts 253°
2026-05-04 18:43 51.70066 -1.89894 15504 ft 299 kts 236°
2026-05-04 18:43 51.68460 -1.92285 15492 ft 329 kts 214°
2026-05-04 18:43 51.66632 -1.94683 15504 ft 359 kts 226°
2026-05-04 18:44 51.64853 -1.97724 15507 ft 385 kts 220°
2026-05-04 18:44 51.63354 -1.99358 15636 ft 397 kts 206°
2026-05-04 18:44 51.59912 -2.01547 16820 ft 397 kts 195°
2026-05-04 18:44 51.57185 -2.01950 17662 ft 401 kts 176°
2026-05-04 18:45 51.54461 -2.00860 18308 ft 409 kts 157°
2026-05-04 18:45 51.52068 -1.98323 18989 ft 415 kts 138°
2026-05-04 18:45 51.50287 -1.94643 19650 ft 422 kts 120°
2026-05-04 18:45 51.49359 -1.90088 18712 ft 455 kts 87°
2026-05-04 18:46 51.50291 -1.85338 18209 ft 445 kts 70°
2026-05-04 18:46 51.51363 -1.80615 17515 ft 437 kts 71°
2026-05-04 18:46 51.52367 -1.76236 18138 ft 416 kts 70°
2026-05-04 18:46 51.53320 -1.71789 18652 ft 423 kts 77°
2026-05-04 18:47 51.53657 -1.67108 19181 ft 425 kts 91°
2026-05-04 18:47 51.53489 -1.62333 19815 ft 427 kts 93°
2026-05-04 18:47 51.53248 -1.57587 20340 ft 430 kts 103°
2026-05-04 18:47 51.52553 -1.52886 20877 ft 427 kts 105°
2026-05-04 18:48 51.51831 -1.48363 20956 ft 405 kts 106°
2026-05-04 18:48 51.51122 -1.44150 21387 ft 383 kts 107°
2026-05-04 18:48 51.50426 -1.40069 21718 ft 385 kts 107°
2026-05-04 18:48 51.49700 -1.35838 22271 ft 391 kts 107°
2026-05-04 18:49 51.48985 -1.31677 22810 ft 394 kts 107°
2026-05-04 18:49 51.48253 -1.27422 23007 ft 391 kts 107°
2026-05-04 18:49 51.47534 -1.23248 23019 ft 385 kts 106°
2026-05-04 18:49 51.46815 -1.19113 23017 ft 384 kts 108°
2026-05-04 18:50 51.46099 -1.15033 23017 ft 383 kts 108°
2026-05-04 18:50 51.45382 -1.10910 23017 ft 383 kts 107°
2026-05-04 18:50 51.44665 -1.06772 23017 ft 383 kts 107°
2026-05-04 18:50 51.43940 -1.02645 23016 ft 383 kts 107°
2026-05-04 18:51 51.43228 -0.98575 23016 ft 383 kts 107°
2026-05-04 18:51 51.42508 -0.94440 23017 ft 383 kts 107°
2026-05-04 18:51 51.41818 -0.90284 23184 ft 391 kts 103°
2026-05-04 18:51 51.41522 -0.85939 23620 ft 401 kts 91°
2026-05-04 18:52 51.41879 -0.81442 24088 ft 409 kts 77°
2026-05-04 18:52 51.42733 -0.77052 24566 ft 414 kts 71°
2026-05-04 18:52 51.43815 -0.72738 25043 ft 418 kts 68°
2026-05-04 18:52 51.45005 -0.68505 25513 ft 422 kts 66°
2026-05-04 18:53 51.46256 -0.64220 25961 ft 426 kts 66°
2026-05-04 18:53 51.47508 -0.59935 26410 ft 429 kts 66°
2026-05-04 18:53 51.48764 -0.55563 26878 ft 432 kts 67°
2026-05-04 18:53 51.50007 -0.51156 27328 ft 435 kts 67°
2026-05-04 18:54 51.51234 -0.46740 27771 ft 438 kts 68°
2026-05-04 18:54 51.52488 -0.42178 28216 ft 441 kts 68°
2026-05-04 18:54 51.53717 -0.37677 28640 ft 444 kts 68°
2026-05-04 18:54 51.54952 -0.33140 29075 ft 448 kts 68°
2026-05-04 18:55 51.56203 -0.28534 29509 ft 451 kts 68°
2026-05-04 18:55 51.58739 -0.19181 30292 ft 459 kts 68°
2026-05-04 18:55 51.60004 -0.14507 30652 ft 461 kts 68°
2026-05-04 18:56 51.61293 -0.09737 31045 ft 463 kts 68°
2026-05-04 18:56 51.62571 -0.04998 31447 ft 465 kts 68°
2026-05-04 18:56 51.63824 -0.00343 31804 ft 467 kts 68°
2026-05-04 18:56 51.65126 0.04506 32119 ft 470 kts 68°
2026-05-04 18:57 51.66410 0.09297 32590 ft 469 kts 68°
2026-05-04 18:57 51.67708 0.14151 33140 ft 467 kts 68°
2026-05-04 18:57 51.68897 0.18610 33603 ft 466 kts 68°
2026-05-04 18:57 51.70164 0.23371 34075 ft 465 kts 68°
2026-05-04 18:58 51.71436 0.28184 34480 ft 464 kts 68°
2026-05-04 18:58 51.72697 0.32959 34859 ft 464 kts 68°
2026-05-04 18:58 51.73951 0.37703 35214 ft 464 kts 68°
2026-05-04 18:58 51.75228 0.42532 35570 ft 464 kts 68°
2026-05-04 18:59 51.76493 0.47326 35907 ft 464 kts 68°
2026-05-04 18:59 51.77747 0.52095 36196 ft 465 kts 68°
2026-05-04 18:59 51.79019 0.56939 36474 ft 466 kts 68°
2026-05-04 18:59 51.80268 0.61708 36866 ft 465 kts 68°
2026-05-04 19:00 51.81528 0.66520 37209 ft 465 kts 67°
2026-05-04 19:00 51.82795 0.71338 37544 ft 465 kts 67°
2026-05-04 19:00 51.84066 0.76182 37862 ft 465 kts 67°
2026-05-04 19:00 51.85315 0.80966 38194 ft 465 kts 68°
2026-05-04 19:01 51.86490 0.85844 38525 ft 464 kts 70°
2026-05-04 19:01 51.87700 0.90689 38820 ft 464 kts 61°
2026-05-04 19:01 51.89408 0.95065 38990 ft 466 kts 58°
2026-05-04 19:01 51.91124 0.99575 39027 ft 470 kts 58°
2026-05-04 19:02 51.94480 1.08709 39027 ft 473 kts 64°
2026-05-04 19:02 51.96736 1.18690 39031 ft 472 kts 74°
2026-05-04 19:03 51.98373 1.28979 39028 ft 472 kts 77°
2026-05-04 19:03 51.99862 1.39380 39027 ft 471 kts 77°
2026-05-04 19:04 52.01347 1.49706 39025 ft 472 kts 77°
2026-05-04 19:04 52.02868 1.60127 39029 ft 473 kts 77°
2026-05-04 19:05 52.04322 1.70512 39028 ft 473 kts 78°
2026-05-04 19:05 52.05602 1.80973 39028 ft 472 kts 80°
2026-05-04 19:06 52.06755 1.91507 39027 ft 472 kts 81°
2026-05-04 19:06 52.07746 2.02073 39023 ft 473 kts 83°
2026-05-04 19:07 52.08554 2.12646 39027 ft 473 kts 84°
2026-05-04 19:07 52.09183 2.23301 39021 ft 473 kts 86°
2026-05-04 19:08 52.09623 2.33985 39020 ft 472 kts 88°
2026-05-04 19:08 52.09878 2.44682 39017 ft 472 kts 89°
2026-05-04 19:09 52.09968 2.55315 39020 ft 472 kts 91°
2026-05-04 19:09 52.09875 2.66017 39021 ft 472 kts 93°
2026-05-04 19:10 52.09598 2.76657 39021 ft 471 kts 95°
2026-05-04 19:10 52.09133 2.87247 39020 ft 471 kts 97°
2026-05-04 19:11 52.08468 2.97842 39016 ft 470 kts 99°
2026-05-04 19:11 52.07633 3.08423 39018 ft 469 kts 100°
2026-05-04 19:12 52.06081 3.24106 39018 ft 469 kts 103°
2026-05-04 19:13 52.04842 3.34486 39008 ft 468 kts 103°
2026-05-04 19:13 52.03443 3.44850 39001 ft 468 kts 105°
2026-05-04 19:14 52.01678 3.54954 38995 ft 466 kts 114°
2026-05-04 19:14 51.99149 3.64647 38996 ft 465 kts 116°
2026-05-04 19:15 51.96472 3.74166 39005 ft 464 kts 117°
2026-05-04 19:15 51.93759 3.83590 38992 ft 463 kts 117°
2026-05-04 19:16 51.91018 3.93080 38986 ft 463 kts 117°
2026-05-04 19:16 51.88296 4.02501 38976 ft 464 kts 117°
2026-05-04 19:17 51.85565 4.11935 38971 ft 453 kts 117°
2026-05-04 19:17 51.84261 4.16437 38956 ft 440 kts 117°
2026-05-04 19:17 51.82974 4.20867 38955 ft 427 kts 118°
2026-05-04 19:18 51.80482 4.29399 38966 ft 414 kts 118°
2026-05-04 19:18 51.78023 4.37766 38965 ft 414 kts 118°
2026-05-04 19:19 51.75561 4.46129 38968 ft 414 kts 118°
2026-05-04 19:19 51.73079 4.54544 38958 ft 414 kts 118°
2026-05-04 19:20 51.70580 4.62931 38966 ft 413 kts 119°
2026-05-04 19:20 51.68083 4.71258 38964 ft 413 kts 119°
2026-05-04 19:21 51.65580 4.79620 38966 ft 417 kts 119°
2026-05-04 19:21 51.63096 4.87998 38963 ft 414 kts 118°
2026-05-04 19:22 51.60609 4.96372 38966 ft 413 kts 118°
2026-05-04 19:22 51.58152 5.04562 38968 ft 413 kts 119°
2026-05-04 19:23 51.55638 5.12882 38967 ft 413 kts 119°
2026-05-04 19:23 51.53135 5.21135 38965 ft 412 kts 119°
2026-05-04 19:24 51.51020 5.28087 38966 ft 412 kts 119°
2026-05-04 19:24 51.48508 5.36320 38961 ft 413 kts 119°
2026-05-04 19:25 51.45972 5.44605 38966 ft 413 kts 120°
2026-05-04 19:25 51.43425 5.52864 38962 ft 413 kts 119°
2026-05-04 19:26 51.40901 5.61071 38964 ft 412 kts 119°
2026-05-04 19:26 51.38368 5.69276 38961 ft 412 kts 119°
2026-05-04 19:27 51.35824 5.77481 38955 ft 412 kts 120°
2026-05-04 19:27 51.33257 5.85726 38962 ft 412 kts 120°
2026-05-04 19:28 51.30673 5.93912 38964 ft 412 kts 120°
2026-05-04 19:28 51.28117 6.02075 38965 ft 413 kts 119°
2026-05-04 19:29 51.26204 6.10783 38965 ft 417 kts 109°
2026-05-04 19:29 51.24718 6.19729 38966 ft 418 kts 108°
2026-05-04 19:30 51.23301 6.28750 38962 ft 418 kts 107°
2026-05-04 19:30 51.21902 6.37710 38968 ft 418 kts 107°
2026-05-04 19:31 51.20499 6.46740 38967 ft 418 kts 107°
2026-05-04 19:31 51.18592 6.55379 38969 ft 411 kts 122°
2026-05-04 19:32 51.15492 6.62972 38965 ft 408 kts 129°
2026-05-04 19:32 51.12101 6.70228 38961 ft 406 kts 131°
2026-05-04 19:33 51.08697 6.77323 38969 ft 405 kts 131°
2026-05-04 19:33 51.05306 6.84423 38976 ft 405 kts 130°
2026-05-04 19:33 51.03624 6.87958 38269 ft 405 kts 128°
2026-05-04 19:34 51.01923 6.91541 39051 ft 407 kts 130°
2026-05-04 19:34 50.98518 6.98710 38995 ft 406 kts 131°
2026-05-04 19:35 50.95089 7.05850 38985 ft 405 kts 131°
2026-05-04 19:35 50.91682 7.12928 38993 ft 405 kts 131°
2026-05-04 19:36 50.88283 7.19999 38993 ft 404 kts 131°
2026-05-04 19:36 50.84888 7.27121 38993 ft 404 kts 130°
2026-05-04 19:37 50.81489 7.34230 38991 ft 404 kts 131°
2026-05-04 19:37 50.78095 7.41269 38993 ft 404 kts 131°
2026-05-04 19:38 50.74665 7.48350 38995 ft 404 kts 131°
2026-05-04 19:38 50.71261 7.55353 38991 ft 403 kts 131°
2026-05-04 19:39 50.67839 7.62377 38994 ft 403 kts 131°
2026-05-04 19:39 50.64393 7.69354 38993 ft 402 kts 133°
2026-05-04 19:40 50.60950 7.76255 38983 ft 402 kts 134°
2026-05-04 19:40 50.57502 7.83165 38990 ft 401 kts 133°
2026-05-04 19:41 50.54075 7.90136 38996 ft 401 kts 132°
2026-05-04 19:41 50.50669 7.97100 38796 ft 401 kts 132°
2026-05-04 19:41 50.48991 8.00537 38443 ft 399 kts 132°
2026-05-04 19:42 50.47302 8.03988 38091 ft 395 kts 133°
2026-05-04 19:42 50.45630 8.07389 37769 ft 391 kts 133°
2026-05-04 19:42 50.43964 8.10759 37441 ft 387 kts 133°
2026-05-04 19:42 50.42313 8.14085 36980 ft 387 kts 133°
2026-05-04 19:43 50.40664 8.17394 36499 ft 388 kts 134°
2026-05-04 19:43 50.38989 8.20749 36034 ft 388 kts 134°
2026-05-04 19:43 50.37335 8.24056 35568 ft 388 kts 134°
2026-05-04 19:43 50.35660 8.27420 35154 ft 388 kts 133°
2026-05-04 19:44 50.34037 8.30700 34983 ft 380 kts 133°
2026-05-04 19:44 50.32451 8.33910 34955 ft 368 kts 133°
2026-05-04 19:44 50.30893 8.37049 34972 ft 363 kts 134°
2026-05-04 19:45 50.27772 8.43217 34976 ft 362 kts 135°
2026-05-04 19:45 50.24655 8.49395 34970 ft 362 kts 134°
2026-05-04 19:46 50.21545 8.55577 34973 ft 362 kts 134°
2026-05-04 19:46 50.18434 8.61743 34968 ft 362 kts 134°
2026-05-04 19:47 50.15294 8.67911 34968 ft 362 kts 134°
2026-05-04 19:47 50.12175 8.74079 34968 ft 362 kts 134°
2026-05-04 19:48 50.09067 8.80196 34968 ft 361 kts 134°
2026-05-04 19:48 50.05949 8.86329 34969 ft 361 kts 134°
2026-05-04 19:49 50.02811 8.92451 34971 ft 361 kts 135°
2026-05-04 19:49 49.99679 8.98533 34973 ft 361 kts 135°
2026-05-04 19:50 49.96543 9.04649 34972 ft 361 kts 134°
2026-05-04 19:50 49.93398 9.10779 34976 ft 361 kts 134°
2026-05-04 19:51 49.90262 9.16859 34981 ft 363 kts 134°
2026-05-04 19:51 49.87114 9.22952 34980 ft 363 kts 134°
2026-05-04 19:52 49.83950 9.29061 34980 ft 363 kts 135°